Wind from 234 at 3 knots gusting 4

Air temperature 18.9° C
Dewpoint 3.9° C

Last reported at 2014-Apr-21 14:37 UTC.
Time now 2014-Apr-21 15:13 UTC

Location: N 40°38' E 022°57'.
View on Google Maps.

See reports from other nearby stations

Tides Stations Pressure Air Temp Water Temp Dewpoint Dewpoint depression Visibility Wind Speed Wind Dir Waves Ship positions

  
sailing weather and tide predictions

SV2BBO-2 Thessaloniki GR weather

date/time (UTC)wind fromknots sea level pressurealtimeterstation pressurevisibilityair tempwater tempwave heightnotes
2014-Apr-21 14:37 234 3 gusting 4 18.9
2014-Apr-21 14:27 220 3 gusting 5 18.9
2014-Apr-21 14:17 211 4 gusting 5 18.9
2014-Apr-21 14:07 228 3 gusting 4 18.9
2014-Apr-21 13:57 251 2 gusting 3 18.3
2014-Apr-21 13:47 217 2 gusting 3 18.3
2014-Apr-21 13:37 266 18.3
2014-Apr-21 13:27 247 2 gusting 3 18.3
2014-Apr-21 13:17 227 1 gusting 4 18.3
2014-Apr-21 13:07 244 2 gusting 4 17.8
2014-Apr-21 12:57 227 2 gusting 3 17.8
2014-Apr-21 12:47 224 3 gusting 4 17.8
2014-Apr-21 12:37 223 3 gusting 4 18.3
2014-Apr-21 12:27 239 2 gusting 3 17.8
2014-Apr-21 12:17 263 17.8
2014-Apr-21 12:07 256 0 gusting 2 17.8
2014-Apr-21 11:57 189 2 gusting 3 17.8
2014-Apr-21 11:47 254 17.8
2014-Apr-21 11:37 237 0 gusting 3 17.8
2014-Apr-21 11:27 172 2 gusting 2 18.3
2014-Apr-21 11:17 208 3 gusting 5 18.3
2014-Apr-21 11:07 278 2 gusting 3 18.9
2014-Apr-21 10:57 239 3 gusting 6 18.9
2014-Apr-21 10:47 226 5 gusting 6 18.9
2014-Apr-21 10:37 213 5 gusting 6 18.9
2014-Apr-21 10:27 211 4 gusting 7 18.9
2014-Apr-21 10:17 211 4 gusting 6 18.9
2014-Apr-21 10:07 208 3 gusting 4 18.9
2014-Apr-21 09:57 226 4 gusting 6 18.9
2014-Apr-21 09:47 223 5 gusting 7 18.9
2014-Apr-21 09:37 223 5 gusting 6 18.9
2014-Apr-21 09:27 216 3 gusting 4 18.9
2014-Apr-21 09:17 235 5 gusting 5 18.9
2014-Apr-21 09:07 229 3 gusting 5 18.9
2014-Apr-21 08:57 246 2 gusting 4 19.4
2014-Apr-21 08:47 217 3 gusting 5 19.4
2014-Apr-21 08:37 216 1 gusting 4 18.9
2014-Apr-21 08:27 213 3 gusting 3 18.9
2014-Apr-21 08:17 204 2 gusting 4 18.9
2014-Apr-21 08:07 220 0 18.3
2014-Apr-21 07:57 220 2 gusting 3 18.3
2014-Apr-21 07:47 220 3 gusting 3 18.3
2014-Apr-21 07:37 238 2 gusting 3 18.9
2014-Apr-21 07:27 225 2 gusting 3 18.9
2014-Apr-21 07:17 266 2 gusting 3 18.9
2014-Apr-21 07:07 231 2 gusting 4 19.4
2014-Apr-21 06:57 236 3 gusting 3 19.4
2014-Apr-21 06:47 238 18.9
2014-Apr-21 06:37 237 2 gusting 3 17.8
2014-Apr-21 06:27 232 3 gusting 4 18.3
2014-Apr-21 06:17 226 3 gusting 3 18.3
2014-Apr-21 06:07 228 3 gusting 4 17.8
2014-Apr-21 05:57 230 3 gusting 4 17.8
2014-Apr-21 05:47 237 3 gusting 3 17.2
2014-Apr-21 05:37 305 16.1
2014-Apr-21 05:27 285 0 gusting 3 16.1
2014-Apr-21 05:17 279 15.6
2014-Apr-21 05:07 279 15.6
2014-Apr-21 04:57 279 0 15.0
2014-Apr-21 04:47 279 15.0
2014-Apr-21 04:37 279 15.0
2014-Apr-21 04:27 279 15.0
2014-Apr-21 04:17 279 15.0
2014-Apr-21 04:07 279 2 gusting 2 14.4
2014-Apr-21 03:57 279 0 gusting 2 14.4
2014-Apr-21 03:47 248 15.0
2014-Apr-21 03:37 247 1 gusting 3 15.0
2014-Apr-21 03:27 189 15.0
2014-Apr-21 03:17 186 15.0
2014-Apr-21 03:07 189 15.6
2014-Apr-21 02:57 189 15.0
2014-Apr-21 02:47 189 15.0
2014-Apr-21 02:37 189 15.6
2014-Apr-21 02:27 189 15.6
2014-Apr-21 02:17 189 15.6
2014-Apr-21 02:07 200 2 gusting 3 15.6
2014-Apr-21 01:57 177 15.6
2014-Apr-21 01:47 037 2 gusting 3 15.0
2014-Apr-21 01:37 037 2 gusting 3 15.6
2014-Apr-21 01:27 037 15.0
2014-Apr-21 01:17 037 15.0
2014-Apr-21 01:07 037 15.0
2014-Apr-21 00:57 037 1 gusting 3 15.0
2014-Apr-21 00:47 037 2 gusting 2 15.0
2014-Apr-21 00:37 037 15.0
2014-Apr-21 00:27 037 15.0
2014-Apr-21 00:17 037 15.0
2014-Apr-21 00:07 037 1 gusting 3 15.0
2014-Apr-20 23:57 034 15.6
2014-Apr-20 23:47 034 15.6
2014-Apr-20 23:37 034 15.6
2014-Apr-20 23:27 034 15.6
2014-Apr-20 23:17 034 15.6
2014-Apr-20 23:07 034 15.6
2014-Apr-20 22:57 034 16.1
2014-Apr-20 22:47 034 16.1
2014-Apr-20 22:37 034 16.1
2014-Apr-20 22:27 034 16.1
2014-Apr-20 22:17 034 2 gusting 2 16.1
2014-Apr-20 22:07 034 3 gusting 3 16.1
2014-Apr-20 21:57 038 0 gusting 2 16.1
2014-Apr-20 21:47 038 16.1
2014-Apr-20 21:37 038 16.1
2014-Apr-20 21:27 038 16.1
2014-Apr-20 21:17 038 0 gusting 2 16.1
2014-Apr-20 21:07 009 1 gusting 3 16.1
2014-Apr-20 20:57 004 16.7
2014-Apr-20 20:47 005 16.7
2014-Apr-20 20:37 004 16.7
2014-Apr-20 20:27 005 16.7
2014-Apr-20 20:17 004 0 16.7
2014-Apr-20 20:07 357 17.2
2014-Apr-20 19:57 357 17.2
2014-Apr-20 19:47 287 17.2
2014-Apr-20 19:37 287 2 gusting 2 17.2
2014-Apr-20 19:27 287 0 gusting 2 17.8
2014-Apr-20 19:17 287 17.8
2014-Apr-20 19:07 287 17.8
2014-Apr-20 18:57 287 1 17.8
2014-Apr-20 18:47 285 1 gusting 3 17.2
2014-Apr-20 18:37 292 0 gusting 2 17.2
2014-Apr-20 18:27 273 17.2
2014-Apr-20 18:17 272 1 gusting 4 17.8
2014-Apr-20 18:07 277 1 gusting 3 17.8
2014-Apr-20 17:57 305 2 gusting 4 17.8
2014-Apr-20 17:47 324 2 gusting 3 17.8
2014-Apr-20 17:37 285 2 gusting 2 17.8
2014-Apr-20 17:27 284 3 gusting 3 17.8
2014-Apr-20 17:17 272 2 gusting 3 17.8
2014-Apr-20 17:07 272 17.8
2014-Apr-20 16:57 272 17.8
2014-Apr-20 16:47 280 17.8
2014-Apr-20 16:37 280 18.3
2014-Apr-20 16:27 280 0 gusting 2 18.3
2014-Apr-20 16:17 270 0 gusting 3 18.3
2014-Apr-20 16:07 266 2 gusting 3 18.3
2014-Apr-20 15:57 301 1 18.3
2014-Apr-20 15:47 238 3 gusting 3 18.3
2014-Apr-20 15:37 254 18.3
2014-Apr-20 15:27 254 1 gusting 3 18.3
2014-Apr-20 15:17 253 18.3
2014-Apr-20 15:07 256 3 gusting 4 18.9
2014-Apr-20 14:57 233 4 gusting 5 18.9
2014-Apr-20 14:47 215 3 gusting 5 18.9
2014-Apr-20 14:37 214 1 gusting 2 18.9
2014-Apr-20 14:27 220 3 gusting 4 18.3
2014-Apr-20 14:17 276 0 gusting 2 18.3
2014-Apr-20 14:07 229 3 gusting 5 18.9
2014-Apr-20 13:57 227 3 gusting 4 18.9
2014-Apr-20 13:47 232 3 gusting 4 18.9
2014-Apr-20 13:37 206 4 gusting 5 18.9
2014-Apr-20 13:27 217 3 gusting 3 19.4
2014-Apr-20 13:17 234 4 gusting 3 19.4
2014-Apr-20 13:07 215 1 gusting 5 19.4
2014-Apr-20 12:57 219 4 gusting 5 20.0
2014-Apr-20 12:47 219 4 gusting 5 19.4
2014-Apr-20 12:37 206 4 gusting 4 19.4
2014-Apr-20 12:27 243 3 gusting 4 18.9
2014-Apr-20 12:17 230 4 gusting 6 19.4
2014-Apr-20 12:07 206 3 gusting 4 19.4
2014-Apr-20 11:57 189 2 gusting 3 19.4
2014-Apr-20 11:47 223 4 gusting 4 18.9
2014-Apr-20 11:37 206 3 gusting 5 18.9
2014-Apr-20 11:27 271 3 gusting 4 18.9
2014-Apr-20 11:17 216 6 gusting 6 18.9
2014-Apr-20 11:07 230 5 gusting 6 18.9
2014-Apr-20 10:57 221 6 gusting 7 19.4
2014-Apr-20 10:47 227 6 gusting 8 19.4
2014-Apr-20 10:37 221 6 gusting 8 19.4
2014-Apr-20 10:27 199 3 gusting 7 19.4
2014-Apr-20 10:17 255 3 gusting 5 19.4
2014-Apr-20 10:07 214 3 gusting 3 19.4
2014-Apr-20 09:57 213 3 gusting 5 19.4
2014-Apr-20 09:47 197 3 gusting 4 18.9
2014-Apr-20 09:37 220 0 gusting 3 18.9
2014-Apr-20 09:27 285 3 gusting 3 18.9
2014-Apr-20 09:17 247 3 gusting 4 18.9
2014-Apr-20 09:07 225 2 gusting 4 18.9
2014-Apr-20 08:57 271 2 gusting 3 18.9
2014-Apr-20 08:47 263 18.3
2014-Apr-20 08:37 264 2 gusting 3 18.3
2014-Apr-20 08:27 266 18.3
2014-Apr-20 08:17 263 0 17.2
2014-Apr-20 08:07 263 0 gusting 2 17.2
2014-Apr-20 07:57 264 2 gusting 3 17.2
2014-Apr-20 07:47 189 2 gusting 3 17.2
2014-Apr-20 07:37 230 3 gusting 4 17.2
2014-Apr-20 07:27 247 17.8
2014-Apr-20 07:17 273 0 gusting 3 17.8
2014-Apr-20 07:07 240 2 gusting 2 17.2
2014-Apr-20 06:57 213 3 gusting 4 17.2
2014-Apr-20 06:47 212 2 gusting 3 17.2
2014-Apr-20 06:37 170 17.2
2014-Apr-20 06:27 170 16.7
2014-Apr-20 06:17 170 0 gusting 2 16.7
2014-Apr-20 06:07 247 16.7
2014-Apr-20 05:57 247 1 gusting 3 16.7
2014-Apr-20 05:47 251 16.1
2014-Apr-20 05:37 251 15.0
2014-Apr-20 05:27 264 2 gusting 3 14.4
2014-Apr-20 05:17 284 14.4
2014-Apr-20 05:07 284 13.9
2014-Apr-20 04:57 284 13.9
2014-Apr-20 04:47 284 0 gusting 3 13.9
2014-Apr-20 04:37 278 13.9
2014-Apr-20 04:27 277 2 gusting 3 13.9
2014-Apr-20 04:17 229 13.9
2014-Apr-20 04:07 229 13.9
2014-Apr-20 03:57 229 13.9
2014-Apr-20 03:47 229 13.9
2014-Apr-20 03:37 229 13.9
2014-Apr-20 03:27 228 1 gusting 3 13.9
2014-Apr-20 03:17 269 2 gusting 4 13.9
2014-Apr-20 03:07 102 13.9
2014-Apr-20 02:57 102 13.9
2014-Apr-20 02:47 101 13.9
2014-Apr-20 02:37 143 2 gusting 3 13.9
2014-Apr-20 02:27 151 2 gusting 3 13.9
2014-Apr-20 02:17 106 13.9
2014-Apr-20 02:07 135 2 gusting 4 13.9
2014-Apr-20 01:57 304 13.9
2014-Apr-20 01:47 303 13.9
2014-Apr-20 01:37 304 13.9
2014-Apr-20 01:27 303 0 gusting 2 13.9
2014-Apr-20 01:17 302 2 gusting 3 13.9
2014-Apr-20 01:07 057 0 gusting 3 13.9
2014-Apr-20 00:57 058 13.9
2014-Apr-20 00:47 058 13.9
2014-Apr-20 00:37 058 13.9
2014-Apr-20 00:27 058 13.9
2014-Apr-20 00:17 058 13.3
2014-Apr-20 00:07 059 13.3
2014-Apr-19 23:57 059 13.3
2014-Apr-19 23:47 058 1 gusting 2 13.9
2014-Apr-19 23:37 058 13.9
2014-Apr-19 23:27 059 13.9
2014-Apr-19 23:17 060 2 gusting 3 13.9
2014-Apr-19 23:07 061 13.9
2014-Apr-19 22:57 061 13.9
2014-Apr-19 22:47 061 2 gusting 2 13.9
2014-Apr-19 22:37 061 13.9
2014-Apr-19 22:27 061 13.9
2014-Apr-19 22:17 061 13.9
2014-Apr-19 22:07 061 0 13.9
2014-Apr-19 21:57 061 13.9
2014-Apr-19 21:47 061 13.9
2014-Apr-19 21:37 061 13.9
2014-Apr-19 21:27 061 13.9
2014-Apr-19 21:17 061 13.9
2014-Apr-19 21:07 061 14.4
2014-Apr-19 20:57 061 0 gusting 2 14.4
2014-Apr-19 20:47 061 14.4
2014-Apr-19 20:37 061 14.4
2014-Apr-19 20:27 061 1 gusting 2 14.4
2014-Apr-19 20:17 072 1 gusting 3 14.4
2014-Apr-19 20:07 060 2 gusting 3 14.4
2014-Apr-19 19:57 059 2 gusting 2 14.4
2014-Apr-19 19:47 059 15.0
2014-Apr-19 19:37 059 14.4
2014-Apr-19 19:27 059 15.0
2014-Apr-19 19:17 059 15.0
2014-Apr-19 19:07 059 2 gusting 3 15.0
2014-Apr-19 18:57 066 15.0
2014-Apr-19 18:47 067 15.0
2014-Apr-19 18:37 066 15.0
2014-Apr-19 18:27 066 15.0
2014-Apr-19 18:17 068 15.0
2014-Apr-19 18:07 068 2 gusting 3 15.0
2014-Apr-19 17:57 231 15.0
2014-Apr-19 17:47 231 15.0
2014-Apr-19 17:37 231 15.6
2014-Apr-19 17:27 232 16.1
2014-Apr-19 17:17 231 16.1
2014-Apr-19 17:07 231 16.1
2014-Apr-19 16:57 231 16.1
2014-Apr-19 16:47 219 16.1
2014-Apr-19 16:37 222 2 gusting 3 16.1
2014-Apr-19 16:27 227 16.1
2014-Apr-19 16:17 220 3 gusting 4 16.1
2014-Apr-19 16:07 204 3 gusting 3 16.7
2014-Apr-19 15:57 037 16.7
2014-Apr-19 15:47 037 1 16.1
2014-Apr-19 15:37 042 0 gusting 3 16.1
2014-Apr-19 15:27 068 4 gusting 5 16.1
2014-Apr-19 15:17 061 4 gusting 4 16.1
2014-Apr-19 15:07 050 2 gusting 4 16.1